Tracking 23732 objects as of 28-Sep-2021
HD Live streaming from Space Station
objects crossing your sky now

DELTA 1 DEB

Track DELTA 1 DEB now!
10-day predictions


NORAD ID: 12246
Int'l Code: 1978-026CP
Perigee: 850.6 km
Apogee: 934.1 km
Inclination: 99.3 °
Period: 102.7 minutes
Semi major axis: 7263 km
RCS: 0.186 m2 (medium)
Launch date: March 5, 1978
Source: United States (US)
Launch site: AIR FORCE WESTERN TEST RANGE (AFWTR)

Note: This is SATELLITE DEBRIS
aabbcc
Your satellite tracking list
Your tracking list is empty




NASA's NSSDC Master Catalog

Two Line Element Set (TLE):
1 12246U 78026CP  21271.07042387 -.00000010  00000-0  23266-4 0  9997
2 12246  99.2832 115.7377 0057476  55.9791  96.5705 14.02486545 76303
Source of the keplerian elements: AFSPC